Location: Newark
(52.3500°N, 175.9667°E)
Time: 10:44:30
(UTC+00:00)

S-56A Canister/Altair - Pass Details

Date: 30 November 2022
Orbit: 639 x 2493 km, 38.9° (Epoch: 01 February)

Event Time Altitude Azimuth Distance (km) Brightness Sun altitude
Rises 19:14:32 0° 211° (SSW) 3,379 10.8 -7.1°
Reaches altitude 10° 19:20:17 10° 163° (SSE) 2,130 10.5 -6.3°
Maximum altitude 19:20:20 10° 162° (SSE) 2,128 10.5 -6.3°
Drops below altitude 10° 19:20:23 10° 161° (SSE) 2,126 10.6 -6.3°
Sets 19:25:30 0° 111° (ESE) 2,931 12.9 -5.6°
